Other Surface Observations
Issued by NWS Charleston, SC

Home | Current Version | Previous Version | Text Only | Print | Product List | Glossary On
Versions: 1 2 3 4 5 6 7 8 9 10 11 12 13 14 15 16 17 18 19 20 21 22 23 24 25 26 27 28 29 30 31 32 33 34 35 36 37 38 39 40 41 42 43 44 45 46 47 48 49 50
000
SXUS52 KCHS 241825
OSOCHS

MARINE OBSERVATIONS
NATIONAL WEATHER SERVICE CHARLESTON SC
200 PM EDT FRI OCT 24 2014

...DOWNTOWN CHARLESTON AND HARBOR...

CITY           SKY/WX    TMP DP  RH WIND       PRES   REMARKS
WATERFRONT PRK   N/A     70 N/A N/A NE6         N/A
FORT JOHNSON   NOT AVBL

...LAKE MOULTRIE...

CITY           SKY/WX    TMP DP  RH WIND       PRES   REMARKS
PINOPOLIS      NOT AVBL

...LAKE AND SUPPLEMENTAL COASTAL OBSERVATIONS...

STATION/POSITION TIME  TEMP    WIND        PRES    WAVE   SWELL
                       AIR SEA DIR/SP/G            HT/PER HT/PER/DIR
                 (UTC) (F)     (DEG/KT/KT) (MB)    (FT/S) (FT/S/D)
FORT PULASKI     1800   68      80/  4/  5 1016.7F
SAPELO ISLAND    NOT AVBL
UPR LAKE MARION  NOT AVBL
WINYAH BAY       1800   64     100/  3     1016.0S
LAKE MURRAY      1700   66     190/  4/  7 1016.9F
ACE BASIN NERRS  1800   73        CALM     1017.0S


...C-MAN AND BUOY OBSERVATIONS...

STATION/POSITION TIME  TEMP    WIND        PRES    WAVE   SWELL
                       AIR SEA DIR/SP/G            HT/PER HT/PER/DIR
                 (UTC) (F)     (DEG/KT/KT) (MB)    (FT/S) (FT/S/D)
BUOY 41004       1800   68 78  340/  6/ 10 1016.0F   3/11   3/11
BUOY 41008       1800   68 75   20/  8/ 10 1016.6F   2/11   2/ 80/11
FOLLY BEACH CMAN 1800   68     100/  3/  3 1016.7F
CAPERS NS BUOY   NOT AVBL
FRIPP NS BUOY    NOT AVBL
5E ST. MARYS GA  1800      76                N/A     2/11   2/ 90/11
FRYING PAN BUOY  1800   65 73   20/  4/  6 1016.7F   3/10   2/ 90/10
BUOY 41025       1800   62     310/ 14/ 17 1014.7F   4/10   2/ 40/10
CAPE LOOKOUT NC  1800   65     320/  4/  6 1015.1F
BUOY 41002       1703   73 78  310/  8/ 10 1014.7    4/10   3/360/10
BUOY 41010       1800   74 81   60/ 10/ 12 1014.5F   3/ 9   2/ 50/ 9
BUOY 41012       NOT AVBL
ST AUGUSTINE FL  1800   69     350/ 16/ 18 1016.6F


$$



USA.gov is the U.S. government's official web portal to all federal, state and local government web resources and services.